Year,Month,Day,Hour,Minute,Value (Times are PST for temperature in C)
2013,02,23,00,00,5.50
2013,02,23,00,01,5.40
2013,02,23,00,02,5.40
2013,02,23,00,03,5.40
2013,02,23,00,04,5.40
2013,02,23,00,05,5.40
2013,02,23,00,06,5.50
2013,02,23,00,07,5.50
2013,02,23,00,08,5.60
2013,02,23,00,09,5.60
2013,02,23,00,10,5.60
2013,02,23,00,11,5.60
2013,02,23,00,12,5.60
2013,02,23,00,13,5.60
2013,02,23,00,14,5.60
2013,02,23,00,15,5.60
2013,02,23,00,16,5.60
2013,02,23,00,17,5.70
2013,02,23,00,18,5.70
2013,02,23,00,19,5.70
2013,02,23,00,20,5.70
2013,02,23,00,21,5.70
2013,02,23,00,22,5.70
2013,02,23,00,23,5.70
2013,02,23,00,24,5.70
2013,02,23,00,25,5.60
2013,02,23,00,26,5.60
2013,02,23,00,27,5.60
2013,02,23,00,28,5.60
2013,02,23,00,29,5.60
2013,02,23,00,30,5.60
2013,02,23,00,31,5.60
2013,02,23,00,32,5.60
2013,02,23,00,33,5.60
2013,02,23,00,34,5.60
2013,02,23,00,35,5.70
2013,02,23,00,36,5.70
2013,02,23,00,37,5.70
2013,02,23,00,38,5.70
2013,02,23,00,39,5.80
2013,02,23,00,40,5.80
2013,02,23,00,41,5.80
2013,02,23,00,42,5.80
2013,02,23,00,43,5.80
2013,02,23,00,44,5.80
2013,02,23,00,45,5.80
2013,02,23,00,46,5.80
2013,02,23,00,47,5.80
2013,02,23,00,48,5.80
2013,02,23,00,49,5.80
2013,02,23,00,50,5.80
2013,02,23,00,51,5.80
2013,02,23,00,52,5.80
2013,02,23,00,53,5.80
2013,02,23,00,54,5.80
2013,02,23,00,55,5.80
2013,02,23,00,56,5.80
2013,02,23,00,57,5.80
2013,02,23,00,58,5.80
2013,02,23,00,59,5.70
2013,02,23,01,00,5.70
2013,02,23,01,01,5.70
2013,02,23,01,02,5.70
2013,02,23,01,03,5.60
2013,02,23,01,04,5.60
2013,02,23,01,05,5.60
2013,02,23,01,06,5.60
2013,02,23,01,07,5.60
2013,02,23,01,08,5.60
2013,02,23,01,09,5.60
2013,02,23,01,10,5.60
2013,02,23,01,11,5.70
2013,02,23,01,12,5.70
2013,02,23,01,13,5.70
2013,02,23,01,14,5.70
2013,02,23,01,15,5.70
2013,02,23,01,16,5.80
2013,02,23,01,17,5.80
2013,02,23,01,18,5.90
2013,02,23,01,19,5.90
2013,02,23,01,20,6.00
2013,02,23,01,21,6.00
2013,02,23,01,22,6.00
2013,02,23,01,23,6.00
2013,02,23,01,24,6.00
2013,02,23,01,25,6.00
2013,02,23,01,26,6.00
2013,02,23,01,27,6.00
2013,02,23,01,28,6.00
2013,02,23,01,29,6.00
2013,02,23,01,30,6.00
2013,02,23,01,31,5.90
2013,02,23,01,32,6.00
2013,02,23,01,33,6.00
2013,02,23,01,34,5.90
2013,02,23,01,35,5.90
2013,02,23,01,36,6.00
2013,02,23,01,37,6.00
2013,02,23,01,38,6.00
2013,02,23,01,39,6.10
2013,02,23,01,40,6.10
2013,02,23,01,41,6.10
2013,02,23,01,42,6.10
2013,02,23,01,43,6.10
2013,02,23,01,44,6.10
2013,02,23,01,45,6.10
2013,02,23,01,46,6.10
2013,02,23,01,47,6.10
2013,02,23,01,48,6.20
2013,02,23,01,49,6.20
2013,02,23,01,50,6.20
2013,02,23,01,51,6.20
2013,02,23,01,52,6.20
2013,02,23,01,53,6.20
2013,02,23,01,54,6.20
2013,02,23,01,55,6.20
2013,02,23,01,56,6.20
2013,02,23,01,57,6.20
2013,02,23,01,58,6.20
2013,02,23,01,59,6.20
2013,02,23,02,00,6.20
2013,02,23,02,01,6.20
2013,02,23,02,02,6.20
2013,02,23,02,03,6.20
2013,02,23,02,04,6.20
2013,02,23,02,05,6.20
2013,02,23,02,06,6.20
2013,02,23,02,07,6.20
2013,02,23,02,08,6.20
2013,02,23,02,09,6.20
2013,02,23,02,10,6.30
2013,02,23,02,11,6.30
2013,02,23,02,12,6.30
2013,02,23,02,13,6.30
2013,02,23,02,14,6.30
2013,02,23,02,15,6.30
2013,02,23,02,16,6.30
2013,02,23,02,17,6.40
2013,02,23,02,18,6.40
2013,02,23,02,19,6.40
2013,02,23,02,20,6.40
2013,02,23,02,21,6.40
2013,02,23,02,22,6.40
2013,02,23,02,23,6.40
2013,02,23,02,24,6.40
2013,02,23,02,25,6.40
2013,02,23,02,26,6.40
2013,02,23,02,27,6.40
2013,02,23,02,28,6.40
2013,02,23,02,29,6.40
2013,02,23,02,30,6.40
2013,02,23,02,31,6.40
2013,02,23,02,32,6.40
2013,02,23,02,33,6.40
2013,02,23,02,34,6.40
2013,02,23,02,35,6.40
2013,02,23,02,36,6.40
2013,02,23,02,37,6.40
2013,02,23,02,38,6.40
2013,02,23,02,39,6.40
2013,02,23,02,40,6.40
2013,02,23,02,41,6.50
2013,02,23,02,42,6.50
2013,02,23,02,43,6.60
2013,02,23,02,44,6.50
2013,02,23,02,45,6.50
2013,02,23,02,46,6.50
2013,02,23,02,47,6.50
2013,02,23,02,48,6.40
2013,02,23,02,49,6.40
2013,02,23,02,50,6.40
2013,02,23,02,51,6.40
2013,02,23,02,52,6.30
2013,02,23,02,53,6.30
2013,02,23,02,54,6.30
2013,02,23,02,55,6.30
2013,02,23,02,56,6.20
2013,02,23,02,57,6.20
2013,02,23,02,58,6.20
2013,02,23,02,59,6.20
2013,02,23,03,00,6.10
2013,02,23,03,01,6.10
2013,02,23,03,02,6.10
2013,02,23,03,06,6.00
2013,02,23,03,07,6.00
2013,02,23,03,08,5.90
2013,02,23,03,09,5.90
2013,02,23,03,10,5.90
2013,02,23,03,11,6.00
2013,02,23,03,12,6.00
2013,02,23,03,13,6.00
2013,02,23,03,14,6.00
2013,02,23,03,15,6.10
2013,02,23,03,16,6.10
2013,02,23,03,17,6.10
2013,02,23,03,18,6.10
2013,02,23,03,19,6.10
2013,02,23,03,20,6.10
2013,02,23,03,21,6.20
2013,02,23,03,22,6.20
2013,02,23,03,23,6.20
2013,02,23,03,24,6.20
2013,02,23,03,25,6.20
2013,02,23,03,26,6.20
2013,02,23,03,27,6.20
2013,02,23,03,28,6.20
2013,02,23,03,29,6.20
2013,02,23,03,30,6.20
2013,02,23,03,31,6.20
2013,02,23,03,32,6.20
2013,02,23,03,33,6.20
2013,02,23,03,34,6.20
2013,02,23,03,35,6.20
2013,02,23,03,36,6.20
2013,02,23,03,37,6.20
2013,02,23,03,38,6.20
2013,02,23,03,39,6.20
2013,02,23,03,40,6.20
2013,02,23,03,41,6.10
2013,02,23,03,42,6.10
2013,02,23,03,43,6.10
2013,02,23,03,44,6.10
2013,02,23,03,45,6.00
2013,02,23,03,46,6.00
2013,02,23,03,47,6.00
2013,02,23,03,48,6.00
2013,02,23,03,49,6.00
2013,02,23,03,50,6.00
2013,02,23,03,51,5.90
2013,02,23,03,52,5.90
2013,02,23,03,53,5.90
2013,02,23,03,54,5.90
2013,02,23,03,55,5.90
2013,02,23,03,56,5.90
2013,02,23,03,57,5.80
2013,02,23,03,58,5.80
2013,02,23,03,59,5.80
2013,02,23,04,00,5.80
2013,02,23,04,01,5.80
2013,02,23,04,02,5.80
2013,02,23,04,03,5.80
2013,02,23,04,04,5.80
2013,02,23,04,05,5.80
2013,02,23,04,06,5.70
2013,02,23,04,07,5.70
2013,02,23,04,08,5.70
2013,02,23,04,09,5.70
2013,02,23,04,10,5.70
2013,02,23,04,11,5.60
2013,02,23,04,12,5.60
2013,02,23,04,13,5.60
2013,02,23,04,14,5.60
2013,02,23,04,15,5.60
2013,02,23,04,16,5.60
2013,02,23,04,17,5.60
2013,02,23,04,18,5.60
2013,02,23,04,19,5.60
2013,02,23,04,20,5.50
2013,02,23,04,21,5.50
2013,02,23,04,22,5.50
2013,02,23,04,23,5.50
2013,02,23,04,24,5.40
2013,02,23,04,25,5.40
2013,02,23,04,26,5.40
2013,02,23,04,27,5.40
2013,02,23,04,28,5.30
2013,02,23,04,29,5.30
2013,02,23,04,30,5.30
2013,02,23,04,31,5.20
2013,02,23,04,32,5.20
2013,02,23,04,33,5.20
2013,02,23,04,34,5.20
2013,02,23,04,35,5.20
2013,02,23,04,36,5.10
2013,02,23,04,37,5.10
2013,02,23,04,38,5.00
2013,02,23,04,39,4.90
2013,02,23,04,40,4.90
2013,02,23,04,41,4.80
2013,02,23,04,42,4.70
2013,02,23,04,43,4.60
2013,02,23,04,44,4.50
2013,02,23,04,45,4.40
2013,02,23,04,46,4.30
2013,02,23,04,47,4.30
2013,02,23,04,48,4.20
2013,02,23,04,49,4.20
2013,02,23,04,50,4.10
2013,02,23,04,51,4.00
2013,02,23,04,52,4.00
2013,02,23,04,53,3.90
2013,02,23,04,54,3.90
2013,02,23,04,55,3.80
2013,02,23,04,56,3.80
2013,02,23,04,57,3.80
2013,02,23,04,58,3.80
2013,02,23,04,59,3.70
2013,02,23,05,00,3.70
2013,02,23,05,01,3.70
2013,02,23,05,02,3.60
2013,02,23,05,03,3.60
2013,02,23,05,04,3.60
2013,02,23,05,05,3.60
2013,02,23,05,06,3.60
2013,02,23,05,07,3.50
2013,02,23,05,08,3.50
2013,02,23,05,09,3.50
2013,02,23,05,10,3.50
2013,02,23,05,11,3.40
2013,02,23,05,12,3.40
2013,02,23,05,13,3.30
2013,02,23,05,14,3.20
2013,02,23,05,15,3.20
2013,02,23,05,16,3.10
2013,02,23,05,17,3.10
2013,02,23,05,18,3.00
2013,02,23,05,19,3.00
2013,02,23,05,20,2.90
2013,02,23,05,21,2.90
2013,02,23,05,22,2.90
2013,02,23,05,23,2.90
2013,02,23,05,24,2.90
2013,02,23,05,25,2.90
2013,02,23,05,26,2.90
2013,02,23,05,27,2.90
2013,02,23,05,28,2.90
2013,02,23,05,29,2.90
2013,02,23,05,30,2.90
2013,02,23,05,31,2.90
2013,02,23,05,32,2.80
2013,02,23,05,33,2.90
2013,02,23,05,34,2.80
2013,02,23,05,35,2.80
2013,02,23,05,36,2.90
2013,02,23,05,37,2.90
2013,02,23,05,38,2.90
2013,02,23,05,39,2.90
2013,02,23,05,40,2.90
2013,02,23,05,41,2.90
2013,02,23,05,42,2.90
2013,02,23,05,43,3.00
2013,02,23,05,44,3.00
2013,02,23,05,45,3.10
2013,02,23,05,46,3.10
2013,02,23,05,47,3.20
2013,02,23,05,48,3.20
2013,02,23,05,49,3.20
2013,02,23,05,50,3.20
2013,02,23,05,51,3.20
2013,02,23,05,52,3.20
2013,02,23,05,53,3.20
2013,02,23,05,54,3.20
2013,02,23,05,55,3.10
2013,02,23,05,56,3.10
2013,02,23,05,57,3.10
2013,02,23,05,58,3.10
2013,02,23,05,59,3.00
2013,02,23,06,00,3.00
2013,02,23,06,01,3.00
2013,02,23,06,02,2.90
2013,02,23,06,03,2.90
2013,02,23,06,04,2.90
2013,02,23,06,05,2.90
2013,02,23,06,06,2.90
2013,02,23,06,07,2.90
2013,02,23,06,08,2.90
2013,02,23,06,09,2.90
2013,02,23,06,10,2.90
2013,02,23,06,11,2.90
2013,02,23,06,12,2.90
2013,02,23,06,13,2.90
2013,02,23,06,14,3.00
2013,02,23,06,15,3.00
2013,02,23,06,16,3.00
2013,02,23,06,17,3.00
2013,02,23,06,18,3.00
2013,02,23,06,19,3.00
2013,02,23,06,20,3.00
2013,02,23,06,21,3.00
2013,02,23,06,22,3.00
2013,02,23,06,23,3.00
2013,02,23,06,24,3.10
2013,02,23,06,25,3.10
2013,02,23,06,26,3.20
2013,02,23,06,27,3.30
2013,02,23,06,28,3.30
2013,02,23,06,29,3.40
2013,02,23,06,30,3.40
2013,02,23,06,31,3.50
2013,02,23,06,32,3.50
2013,02,23,06,33,3.50
2013,02,23,06,34,3.40
2013,02,23,06,35,3.40
2013,02,23,06,36,3.30
2013,02,23,06,37,3.20
2013,02,23,06,38,3.20
2013,02,23,06,39,3.10
2013,02,23,06,40,3.10
2013,02,23,06,41,3.00
2013,02,23,06,42,3.00
2013,02,23,06,43,2.90
2013,02,23,06,44,2.90
2013,02,23,06,45,2.90
2013,02,23,06,46,2.90
2013,02,23,06,47,2.90
2013,02,23,06,48,2.90
2013,02,23,06,49,2.90
2013,02,23,06,50,2.80
2013,02,23,06,51,2.80
2013,02,23,06,52,2.80
2013,02,23,06,53,2.80
2013,02,23,06,54,2.80
2013,02,23,06,55,2.70
2013,02,23,06,56,2.70
2013,02,23,06,57,2.60
2013,02,23,06,58,2.50
2013,02,23,06,59,2.50
2013,02,23,07,00,2.50
2013,02,23,07,01,2.40
2013,02,23,07,02,2.40
2013,02,23,07,03,2.40
2013,02,23,07,04,2.30
2013,02,23,07,05,2.30
2013,02,23,07,06,2.30
2013,02,23,07,07,2.30
2013,02,23,07,08,2.30
2013,02,23,07,09,2.20
2013,02,23,07,10,2.20
2013,02,23,07,11,2.10
2013,02,23,07,12,2.10
2013,02,23,07,13,2.10
2013,02,23,07,14,2.00
2013,02,23,07,15,1.90
2013,02,23,07,16,1.90
2013,02,23,07,17,1.80
2013,02,23,07,18,1.80
2013,02,23,07,19,1.80
2013,02,23,07,20,1.80
2013,02,23,07,21,1.80
2013,02,23,07,22,1.80
2013,02,23,07,23,1.80
2013,02,23,07,24,1.80
2013,02,23,07,25,1.80
2013,02,23,07,26,1.80
2013,02,23,07,27,1.90
2013,02,23,07,28,1.90
2013,02,23,07,29,1.90
2013,02,23,07,30,1.90
2013,02,23,07,31,1.90
2013,02,23,07,32,1.90
2013,02,23,07,33,1.90
2013,02,23,07,34,1.90
2013,02,23,07,35,1.90
2013,02,23,07,36,1.90
2013,02,23,07,37,1.90
2013,02,23,07,38,1.90
2013,02,23,07,39,1.90
2013,02,23,07,40,1.90
2013,02,23,07,41,1.90
2013,02,23,07,42,1.90
2013,02,23,07,43,1.90
2013,02,23,07,44,1.90
2013,02,23,07,45,1.90
2013,02,23,07,46,1.90
2013,02,23,07,47,1.90
2013,02,23,07,48,1.90
2013,02,23,07,49,1.80
2013,02,23,07,50,1.80
2013,02,23,07,51,1.80
2013,02,23,07,52,1.80
2013,02,23,07,53,1.80
2013,02,23,07,54,1.80
2013,02,23,07,55,1.80
2013,02,23,07,56,1.80
2013,02,23,07,57,1.80
2013,02,23,07,58,1.80
2013,02,23,07,59,1.80
2013,02,23,08,00,1.80
2013,02,23,08,01,1.90
2013,02,23,08,02,1.90
2013,02,23,08,03,2.00
2013,02,23,08,04,2.00
2013,02,23,08,05,2.10
2013,02,23,08,06,2.10
2013,02,23,08,07,2.20
2013,02,23,08,08,2.20
2013,02,23,08,09,2.20
2013,02,23,08,10,2.30
2013,02,23,08,11,2.30
2013,02,23,08,12,2.40
2013,02,23,08,13,2.40
2013,02,23,08,14,2.50
2013,02,23,08,15,2.60
2013,02,23,08,16,2.60
2013,02,23,08,17,2.70
2013,02,23,08,18,2.70
2013,02,23,08,19,2.80
2013,02,23,08,20,2.80
2013,02,23,08,21,2.90
2013,02,23,08,22,2.90
2013,02,23,08,23,3.00
2013,02,23,08,24,3.10
2013,02,23,08,25,3.10
2013,02,23,08,26,3.20
2013,02,23,08,27,3.20
2013,02,23,08,28,3.30
2013,02,23,08,29,3.30
2013,02,23,08,30,3.30
2013,02,23,08,31,3.40
2013,02,23,08,32,3.40
2013,02,23,08,33,3.50
2013,02,23,08,34,3.50
2013,02,23,08,35,3.60
2013,02,23,08,36,3.60
2013,02,23,08,37,3.70
2013,02,23,08,38,3.70
2013,02,23,08,39,3.70
2013,02,23,08,40,3.80
2013,02,23,08,41,3.80
2013,02,23,08,42,3.90
2013,02,23,08,43,3.90
2013,02,23,08,44,4.00
2013,02,23,08,45,4.10
2013,02,23,08,46,4.10
2013,02,23,08,47,4.20
2013,02,23,08,48,4.20
2013,02,23,08,49,4.30
2013,02,23,08,50,4.30
2013,02,23,08,51,4.40
2013,02,23,08,52,4.50
2013,02,23,08,53,4.60
2013,02,23,08,54,4.70
2013,02,23,08,55,4.80
2013,02,23,08,56,4.90
2013,02,23,08,57,5.00
2013,02,23,08,58,5.10
2013,02,23,08,59,5.20
2013,02,23,09,00,5.30
2013,02,23,09,01,5.50
2013,02,23,09,02,5.50
2013,02,23,09,03,5.60
2013,02,23,09,04,5.70
2013,02,23,09,05,5.70
2013,02,23,09,06,5.80
2013,02,23,09,07,5.90
2013,02,23,09,08,6.00
2013,02,23,09,09,6.10
2013,02,23,09,10,6.20
2013,02,23,09,11,6.30
2013,02,23,09,12,6.40
2013,02,23,09,13,6.50
2013,02,23,09,14,6.60
2013,02,23,09,15,6.70
2013,02,23,09,16,6.70
2013,02,23,09,17,6.80
2013,02,23,09,18,6.80
2013,02,23,09,19,6.90
2013,02,23,09,20,7.00
2013,02,23,09,21,7.00
2013,02,23,09,22,7.10
2013,02,23,09,23,7.10
2013,02,23,09,24,7.20
2013,02,23,09,25,7.20
2013,02,23,09,26,7.30
2013,02,23,09,27,7.30
2013,02,23,09,28,7.40
2013,02,23,09,29,7.50
2013,02,23,09,30,7.50
2013,02,23,09,31,7.50
2013,02,23,09,32,7.60
2013,02,23,09,33,7.60
2013,02,23,09,34,7.60
2013,02,23,09,35,7.60
2013,02,23,09,36,7.60
2013,02,23,09,37,7.60
2013,02,23,09,38,7.70
2013,02,23,09,39,7.70
2013,02,23,09,40,7.70
2013,02,23,09,41,7.80
2013,02,23,09,42,7.80
2013,02,23,09,43,7.90
2013,02,23,09,44,7.90
2013,02,23,09,45,7.90
2013,02,23,09,46,7.90
2013,02,23,09,47,7.90
2013,02,23,09,48,8.00
2013,02,23,09,49,7.90
2013,02,23,09,50,7.90
2013,02,23,09,51,7.80
2013,02,23,09,52,7.80
2013,02,23,09,53,7.80
2013,02,23,09,54,7.80
2013,02,23,09,55,7.80
2013,02,23,09,56,7.80
2013,02,23,09,57,7.80
2013,02,23,09,58,7.80
2013,02,23,09,59,7.80
2013,02,23,10,00,7.80
2013,02,23,10,01,7.80
2013,02,23,10,02,7.90
2013,02,23,10,03,7.90
2013,02,23,10,04,7.90
2013,02,23,10,05,7.90
2013,02,23,10,06,7.90
2013,02,23,10,07,8.00
2013,02,23,10,08,8.00
2013,02,23,10,09,8.10
2013,02,23,10,10,8.20
2013,02,23,10,11,8.20
2013,02,23,10,12,8.30
2013,02,23,10,13,8.40
2013,02,23,10,14,8.50
2013,02,23,10,15,8.50
2013,02,23,10,16,8.60
2013,02,23,10,17,8.70
2013,02,23,10,18,8.70
2013,02,23,10,19,8.70
2013,02,23,10,20,8.70
2013,02,23,10,21,8.70
2013,02,23,10,22,8.60
2013,02,23,10,23,8.60
2013,02,23,10,24,8.60
2013,02,23,10,25,8.70
2013,02,23,10,26,8.70
2013,02,23,10,27,8.70
2013,02,23,10,28,8.70
2013,02,23,10,29,8.70
2013,02,23,10,30,8.70
2013,02,23,10,31,8.70
2013,02,23,10,32,8.70
2013,02,23,10,33,8.70
2013,02,23,10,34,8.70
2013,02,23,10,35,8.70
2013,02,23,10,36,8.70
2013,02,23,10,37,8.70
2013,02,23,10,38,8.80
2013,02,23,10,39,8.80
2013,02,23,10,40,8.90
2013,02,23,10,41,9.00
2013,02,23,10,42,9.00
2013,02,23,10,43,9.10
2013,02,23,10,44,9.10
2013,02,23,10,45,9.20
2013,02,23,10,46,9.20
2013,02,23,10,47,9.30
2013,02,23,10,48,9.30
2013,02,23,10,49,9.30
2013,02,23,10,50,9.40
2013,02,23,10,51,9.40
2013,02,23,10,52,9.40
2013,02,23,10,53,9.40
2013,02,23,10,54,9.40
2013,02,23,10,55,9.30
2013,02,23,10,56,9.30
2013,02,23,10,57,9.30
2013,02,23,10,58,9.20
2013,02,23,10,59,9.20
2013,02,23,11,00,9.20
2013,02,23,11,01,9.20
2013,02,23,11,02,9.20
2013,02,23,11,03,9.10
2013,02,23,11,04,9.10
2013,02,23,11,05,9.10
2013,02,23,11,06,9.10
2013,02,23,11,07,9.10
2013,02,23,11,08,9.20
2013,02,23,11,09,9.20
2013,02,23,11,10,9.30
2013,02,23,11,11,9.30
2013,02,23,11,12,9.40
2013,02,23,11,13,9.40
2013,02,23,11,14,9.40
2013,02,23,11,15,9.50
2013,02,23,11,16,9.50
2013,02,23,11,17,9.50
2013,02,23,11,18,9.50
2013,02,23,11,19,9.50
2013,02,23,11,20,9.50
2013,02,23,11,21,9.50
2013,02,23,11,22,9.50
2013,02,23,11,23,9.50
2013,02,23,11,24,9.50
2013,02,23,11,25,9.50
2013,02,23,11,26,9.50
2013,02,23,11,27,9.50
2013,02,23,11,28,9.50
2013,02,23,11,29,9.50
2013,02,23,11,30,9.50
2013,02,23,11,31,9.50
2013,02,23,11,32,9.50
2013,02,23,11,33,9.50
2013,02,23,11,34,9.50
2013,02,23,11,35,9.60
2013,02,23,11,36,9.60
2013,02,23,11,37,9.60
2013,02,23,11,38,9.60
2013,02,23,11,39,9.60
2013,02,23,11,40,9.60
2013,02,23,11,41,9.70
2013,02,23,11,42,9.70
2013,02,23,11,43,9.70
2013,02,23,11,44,9.70
2013,02,23,11,45,9.70
2013,02,23,11,46,9.70
2013,02,23,11,47,9.70
2013,02,23,11,48,9.70
2013,02,23,11,49,9.70
2013,02,23,11,50,9.70
2013,02,23,11,51,9.70
2013,02,23,11,52,9.70
2013,02,23,11,53,9.70
2013,02,23,11,54,9.70
2013,02,23,11,55,9.60
2013,02,23,11,56,9.60
2013,02,23,11,57,9.60
2013,02,23,11,58,9.60
2013,02,23,11,59,9.60
2013,02,23,12,00,9.60
2013,02,23,12,01,9.60
2013,02,23,12,02,9.60
2013,02,23,12,03,9.60
2013,02,23,12,04,9.60
2013,02,23,12,05,9.60
2013,02,23,12,06,9.60
2013,02,23,12,07,9.50
2013,02,23,12,08,9.50
2013,02,23,12,09,9.50
2013,02,23,12,10,9.40
2013,02,23,12,11,9.30
2013,02,23,12,12,9.20
2013,02,23,12,13,9.10
2013,02,23,12,14,9.10
2013,02,23,12,15,9.00
2013,02,23,12,16,8.90
2013,02,23,12,17,8.90
2013,02,23,12,18,8.90
2013,02,23,12,19,8.80
2013,02,23,12,20,8.80
2013,02,23,12,21,8.80
2013,02,23,12,22,8.80
2013,02,23,12,23,8.80
2013,02,23,12,24,8.80
2013,02,23,12,25,8.80
2013,02,23,12,26,8.80
2013,02,23,12,27,8.80
2013,02,23,12,28,8.80
2013,02,23,12,29,8.80
2013,02,23,12,30,8.80
2013,02,23,12,31,8.80
2013,02,23,12,32,8.80
2013,02,23,12,33,8.90
2013,02,23,12,34,8.90
2013,02,23,12,35,8.90
2013,02,23,12,36,8.90
2013,02,23,12,37,9.00
2013,02,23,12,38,9.00
2013,02,23,12,39,9.10
2013,02,23,12,40,9.10
2013,02,23,12,41,9.20
2013,02,23,12,42,9.20
2013,02,23,12,43,9.20
2013,02,23,12,44,9.30
2013,02,23,12,45,9.20
2013,02,23,12,46,9.30
2013,02,23,12,47,9.20
2013,02,23,12,48,9.30
2013,02,23,12,49,9.20
2013,02,23,12,50,9.20
2013,02,23,12,51,9.20
2013,02,23,12,52,9.20
2013,02,23,12,53,9.20
2013,02,23,12,54,9.20
2013,02,23,12,55,9.20
2013,02,23,12,56,9.20
2013,02,23,12,57,9.20
2013,02,23,12,58,9.20
2013,02,23,12,59,9.20
2013,02,23,13,00,9.30
2013,02,23,13,01,9.30
2013,02,23,13,02,9.30
2013,02,23,13,03,9.30
2013,02,23,13,04,9.30
2013,02,23,13,05,9.30
2013,02,23,13,06,9.20
2013,02,23,13,07,9.20
2013,02,23,13,08,9.20
2013,02,23,13,09,9.20
2013,02,23,13,10,9.20
2013,02,23,13,11,9.10
2013,02,23,13,12,9.10
2013,02,23,13,13,9.10
2013,02,23,13,14,9.00
2013,02,23,13,15,9.00
2013,02,23,13,16,9.00
2013,02,23,13,17,8.90
2013,02,23,13,18,8.90
2013,02,23,13,19,8.90
2013,02,23,13,20,8.80
2013,02,23,13,21,8.80
2013,02,23,13,22,8.80
2013,02,23,13,23,8.80
2013,02,23,13,24,8.80
2013,02,23,13,25,8.80
2013,02,23,13,26,8.80
2013,02,23,13,27,8.80
2013,02,23,13,28,8.80
2013,02,23,13,29,8.80
2013,02,23,13,30,8.80
2013,02,23,13,31,8.80
2013,02,23,13,32,8.80
2013,02,23,13,33,8.80
2013,02,23,13,34,8.90
2013,02,23,13,35,8.90
2013,02,23,13,36,8.90
2013,02,23,13,37,8.90
2013,02,23,13,38,9.00
2013,02,23,13,39,9.00
2013,02,23,13,40,9.00
2013,02,23,13,41,9.00
2013,02,23,13,42,9.10
2013,02,23,13,43,9.10
2013,02,23,13,44,9.10
2013,02,23,13,45,9.10
2013,02,23,13,46,9.10
2013,02,23,13,47,9.10
2013,02,23,13,48,9.10
2013,02,23,13,49,9.10
2013,02,23,13,50,9.10
2013,02,23,13,51,9.10
2013,02,23,13,52,9.00
2013,02,23,13,53,9.00
2013,02,23,13,54,8.90
2013,02,23,13,55,8.90
2013,02,23,13,56,8.90
2013,02,23,13,57,8.80
2013,02,23,13,58,8.80
2013,02,23,13,59,8.80
2013,02,23,14,00,8.80
2013,02,23,14,01,8.80
2013,02,23,14,02,8.80
2013,02,23,14,03,8.80
2013,02,23,14,04,8.90
2013,02,23,14,05,8.90
2013,02,23,14,06,8.90
2013,02,23,14,07,8.90
2013,02,23,14,08,8.90
2013,02,23,14,09,8.90
2013,02,23,14,10,8.90
2013,02,23,14,11,8.80
2013,02,23,14,12,8.80
2013,02,23,14,13,8.80
2013,02,23,14,14,8.70
2013,02,23,14,15,8.70
2013,02,23,14,16,8.60
2013,02,23,14,17,8.60
2013,02,23,14,18,8.60
2013,02,23,14,19,8.50
2013,02,23,14,20,8.50
2013,02,23,14,21,8.50
2013,02,23,14,22,8.50
2013,02,23,14,23,8.50
2013,02,23,14,24,8.40
2013,02,23,14,25,8.40
2013,02,23,14,26,8.40
2013,02,23,14,27,8.30
2013,02,23,14,28,8.30
2013,02,23,14,29,8.20
2013,02,23,14,30,8.20
2013,02,23,14,31,8.20
2013,02,23,14,32,8.10
2013,02,23,14,33,8.10
2013,02,23,14,34,8.10
2013,02,23,14,35,8.10
2013,02,23,14,36,8.10
2013,02,23,14,37,8.00
2013,02,23,14,38,8.00
2013,02,23,14,39,8.00
2013,02,23,14,40,8.00
2013,02,23,14,41,8.00
2013,02,23,14,42,8.10
2013,02,23,14,43,8.10
2013,02,23,14,44,8.10
2013,02,23,14,45,8.20
2013,02,23,14,46,8.20
2013,02,23,14,47,8.20
2013,02,23,14,48,8.20
2013,02,23,14,49,8.20
2013,02,23,14,50,8.20
2013,02,23,14,51,8.30
2013,02,23,14,52,8.30
2013,02,23,14,53,8.30
2013,02,23,14,54,8.30
2013,02,23,14,55,8.30
2013,02,23,14,56,8.30
2013,02,23,14,57,8.40
2013,02,23,14,58,8.40
2013,02,23,14,59,8.40
2013,02,23,15,00,8.50
2013,02,23,15,01,8.50
2013,02,23,15,02,8.60
2013,02,23,15,03,8.60
2013,02,23,15,04,8.60
2013,02,23,15,05,8.60
2013,02,23,15,06,8.60
2013,02,23,15,07,8.70
2013,02,23,15,08,8.70
2013,02,23,15,09,8.70
2013,02,23,15,10,8.70
2013,02,23,15,11,8.70
2013,02,23,15,12,8.70
2013,02,23,15,13,8.60
2013,02,23,15,14,8.60
2013,02,23,15,15,8.60
2013,02,23,15,16,8.60
2013,02,23,15,17,8.60
2013,02,23,15,18,8.60
2013,02,23,15,19,8.60
2013,02,23,15,20,8.60
2013,02,23,15,21,8.60
2013,02,23,15,22,8.60
2013,02,23,15,23,8.60
2013,02,23,15,24,8.50
2013,02,23,15,25,8.50
2013,02,23,15,26,8.40
2013,02,23,15,27,8.40
2013,02,23,15,28,8.40
2013,02,23,15,29,8.40
2013,02,23,15,30,8.40
2013,02,23,15,31,8.40
2013,02,23,15,32,8.30
2013,02,23,15,33,8.40
2013,02,23,15,34,8.40
2013,02,23,15,35,8.40
2013,02,23,15,36,8.40
2013,02,23,15,37,8.40
2013,02,23,15,38,8.40
2013,02,23,15,39,8.40
2013,02,23,15,40,8.40
2013,02,23,15,41,8.50
2013,02,23,15,42,8.50
2013,02,23,15,43,8.50
2013,02,23,15,44,8.50
2013,02,23,15,45,8.50
2013,02,23,15,46,8.50
2013,02,23,15,47,8.50
2013,02,23,15,48,8.50
2013,02,23,15,49,8.50
2013,02,23,15,50,8.50
2013,02,23,15,51,8.50
2013,02,23,15,52,8.50
2013,02,23,15,53,8.50
2013,02,23,15,54,8.50
2013,02,23,15,55,8.50
2013,02,23,15,56,8.50
2013,02,23,15,57,8.60
2013,02,23,15,58,8.60
2013,02,23,15,59,8.60
2013,02,23,16,00,8.60
2013,02,23,16,01,8.60
2013,02,23,16,02,8.60
2013,02,23,16,03,8.60
2013,02,23,16,04,8.60
2013,02,23,16,05,8.60
2013,02,23,16,06,8.70
2013,02,23,16,07,8.70
2013,02,23,16,08,8.70
2013,02,23,16,09,8.70
2013,02,23,16,10,8.70
2013,02,23,16,11,8.70
2013,02,23,16,12,8.70
2013,02,23,16,13,8.70
2013,02,23,16,14,8.70
2013,02,23,16,15,8.80
2013,02,23,16,16,8.80
2013,02,23,16,17,8.80
2013,02,23,16,18,8.80
2013,02,23,16,19,8.90
2013,02,23,16,20,8.90
2013,02,23,16,21,8.90
2013,02,23,16,22,8.90
2013,02,23,16,23,8.90
2013,02,23,16,24,9.00
2013,02,23,16,25,9.00
2013,02,23,16,26,9.00
2013,02,23,16,27,9.00
2013,02,23,16,28,9.00
2013,02,23,16,29,9.10
2013,02,23,16,30,9.10
2013,02,23,16,31,9.10
2013,02,23,16,32,9.10
2013,02,23,16,33,9.10
2013,02,23,16,34,9.10
2013,02,23,16,35,9.10
2013,02,23,16,36,9.10
2013,02,23,16,37,9.10
2013,02,23,16,38,9.00
2013,02,23,16,39,9.00
2013,02,23,16,40,8.90
2013,02,23,16,41,8.90
2013,02,23,16,42,8.90
2013,02,23,16,43,8.80
2013,02,23,16,44,8.80
2013,02,23,16,45,8.80
2013,02,23,16,46,8.70
2013,02,23,16,47,8.70
2013,02,23,16,48,8.70
2013,02,23,16,49,8.60
2013,02,23,16,50,8.60
2013,02,23,16,51,8.60
2013,02,23,16,52,8.50
2013,02,23,16,53,8.50
2013,02,23,16,54,8.40
2013,02,23,16,55,8.40
2013,02,23,16,56,8.40
2013,02,23,16,57,8.30
2013,02,23,16,58,8.30
2013,02,23,16,59,8.30
2013,02,23,17,00,8.20
2013,02,23,17,01,8.20
2013,02,23,17,02,8.20
2013,02,23,17,03,8.20
2013,02,23,17,04,8.10
2013,02,23,17,05,8.10
2013,02,23,17,06,8.10
2013,02,23,17,07,8.10
2013,02,23,17,08,8.10
2013,02,23,17,09,8.10
2013,02,23,17,10,8.00
2013,02,23,17,11,8.00
2013,02,23,17,12,8.00
2013,02,23,17,13,8.00
2013,02,23,17,14,7.90
2013,02,23,17,15,7.90
2013,02,23,17,16,7.90
2013,02,23,17,17,7.90
2013,02,23,17,18,7.90
2013,02,23,17,19,7.90
2013,02,23,17,20,7.80
2013,02,23,17,21,7.80
2013,02,23,17,22,7.80
2013,02,23,17,23,7.80
2013,02,23,17,24,7.80
2013,02,23,17,25,7.80
2013,02,23,17,26,7.80
2013,02,23,17,27,7.70
2013,02,23,17,28,7.70
2013,02,23,17,29,7.70
2013,02,23,17,30,7.70
2013,02,23,17,31,7.60
2013,02,23,17,32,7.60
2013,02,23,17,33,7.60
2013,02,23,17,34,7.60
2013,02,23,17,35,7.50
2013,02,23,17,36,7.50
2013,02,23,17,37,7.40
2013,02,23,17,38,7.40
2013,02,23,17,39,7.30
2013,02,23,17,40,7.30
2013,02,23,17,41,7.30
2013,02,23,17,42,7.20
2013,02,23,17,43,7.20
2013,02,23,17,44,7.20
2013,02,23,17,45,7.10
2013,02,23,17,46,7.10
2013,02,23,17,47,7.10
2013,02,23,17,48,7.10
2013,02,23,17,49,7.10
2013,02,23,17,50,7.00
2013,02,23,17,51,7.00
2013,02,23,17,52,7.00
2013,02,23,17,53,6.90
2013,02,23,17,54,6.90
2013,02,23,17,55,6.90
2013,02,23,17,56,6.80
2013,02,23,17,57,6.80
2013,02,23,17,58,6.80
2013,02,23,17,59,6.80
2013,02,23,18,00,6.70
2013,02,23,18,01,6.70
2013,02,23,18,02,6.70
2013,02,23,18,03,6.60
2013,02,23,18,04,6.60
2013,02,23,18,05,6.60
2013,02,23,18,06,6.50
2013,02,23,18,07,6.50
2013,02,23,18,08,6.50
2013,02,23,18,09,6.40